TimeEST,TemperatureF,Dew PointF,Humidity,Sea Level PressureIn,VisibilityMPH,Wind Direction,Wind SpeedMPH,Gust SpeedMPH,PrecipitationIn,Events,Conditions,WindDirDegrees,DateUTC
12:07 AM,24.8,21.2,86,30.38,4.0,South,3.5,-,N/A,,Clear,190,2013-03-09 05:07:00
12:54 AM,23.0,19.0,85,30.40,10.0,Calm,Calm,-,N/A,,Clear,0,2013-03-09 05:54:00
1:54 AM,21.9,19.0,89,30.39,8.0,Calm,Calm,-,N/A,,Clear,0,2013-03-09 06:54:00
2:54 AM,19.0,15.1,85,30.38,9.0,Calm,Calm,-,N/A,,Clear,0,2013-03-09 07:54:00
3:54 AM,19.0,14.0,81,30.37,8.0,Calm,Calm,-,N/A,,Clear,0,2013-03-09 08:54:00
4:54 AM,17.1,12.9,84,30.37,9.0,Calm,Calm,-,N/A,,Clear,0,2013-03-09 09:54:00
5:54 AM,16.0,12.9,88,30.38,10.0,Calm,Calm,-,N/A,,Clear,0,2013-03-09 10:54:00
6:54 AM,16.0,12.0,84,30.38,10.0,Calm,Calm,-,N/A,,Clear,0,2013-03-09 11:54:00
7:54 AM,18.0,16.0,92,30.37,10.0,Calm,Calm,-,N/A,,Clear,0,2013-03-09 12:54:00
8:54 AM,25.0,24.1,96,30.36,10.0,Calm,Calm,-,N/A,,Clear,0,2013-03-09 13:54:00
9:54 AM,33.1,27.0,78,30.35,10.0,South,9.2,-,N/A,,Clear,170,2013-03-09 14:54:00
10:54 AM,37.9,25.0,60,30.32,10.0,South,10.4,-,N/A,,Clear,190,2013-03-09 15:54:00
11:54 AM,39.0,26.1,60,30.30,10.0,SSE,12.7,-,N/A,,Clear,160,2013-03-09 16:54:00
12:54 PM,39.0,26.1,60,30.29,10.0,South,16.1,-,N/A,,Clear,170,2013-03-09 17:54:00
1:54 PM,37.9,28.0,68,30.25,10.0,East,9.2,-,N/A,,Clear,100,2013-03-09 18:54:00
2:54 PM,39.0,28.0,65,30.22,10.0,ESE,11.5,-,N/A,,Clear,120,2013-03-09 19:54:00
3:54 PM,36.0,27.0,70,30.22,10.0,SE,11.5,-,N/A,,Clear,130,2013-03-09 20:54:00
4:54 PM,34.0,28.9,82,30.21,8.0,ESE,11.5,-,N/A,,Partly Cloudy,120,2013-03-09 21:54:00
5:54 PM,33.1,28.9,85,30.16,9.0,SE,15.0,23.0,N/A,,Overcast,130,2013-03-09 22:54:00
6:05 PM,32.0,28.4,87,30.11,8.0,SE,16.1,24.2,N/A,,Overcast,130,2013-03-09 23:05:00
6:27 PM,32.0,30.2,93,30.12,8.0,SE,13.8,-,N/A,,Overcast,140,2013-03-09 23:27:00
6:54 PM,33.1,30.0,89,30.15,9.0,SSE,12.7,-,N/A,,Overcast,150,2013-03-09 23:54:00
7:54 PM,34.0,28.9,82,30.13,10.0,SE,8.1,-,N/A,,Overcast,130,2013-03-10 00:54:00
8:54 PM,34.0,30.0,85,30.10,10.0,SE,10.4,-,N/A,,Overcast,130,2013-03-10 01:54:00
9:54 PM,34.0,30.0,85,30.09,9.0,SE,6.9,-,N/A,,Overcast,140,2013-03-10 02:54:00
10:54 PM,34.0,30.0,85,30.09,10.0,ESE,5.8,-,N/A,,Overcast,120,2013-03-10 03:54:00
11:54 PM,35.1,28.9,78,30.08,10.0,ESE,4.6,-,0.00,,Overcast,120,2013-03-10 04:54:00